Wind_Speed
16 19 23 25 27 29 30 31 32 32 33 34 36 38 40 41 44 45 46 46 47 48 48 48 48 48 48 49 50 50 51 51 49 47 47 47 47 46 46 46 47 47 47
14 15 19 22 23 24 26 28 29 31 32 34 35 37 39 41 43 44 46 47 47 47 48 48 48 49 50 51 52 51 50 50 49 50 49 49 48 48 48 48 48 49 48
12 14 15 17 20 22 23 25 28 29 31 33 35 37 39 40 41 43 45 47 48 50 51 51 52 53 53 53 53 51 51 50 50 51 51 50 50 50 50 50 50 49 49
9 10 11 13 15 18 19 21 24 28 30 33 36 38 40 42 43 45 47 48 49 50 52 53 52 52 52 53 53 52 52 52 52 52 51 51 51 51 51 51 50 49 48
6 7 8 10 13 15 17 20 23 26 29 32 35 37 39 41 44 45 47 47 48 49 50 51 52 53 53 53 54 54 54 54 53 53 53 52 51 51 51 51 50 49 48
6 7 9 11 13 16 19 21 23 26 29 32 35 38 40 42 44 46 48 49 50 51 52 54 54 55 56 56 57 57 57 56 56 56 55 54 53 52 52 51 49 48 47
7 10 12 15 17 20 23 25 27 30 32 35 38 41 44 45 47 48 50 52 53 54 54 55 55 57 58 58 59 60 59 59 58 57 56 56 54 53 52 50 49 48 47
14 16 18 21 24 26 29 31 33 35 37 39 42 45 47 49 51 51 52 54 54 55 56 57 57 58 60 60 61 61 60 60 59 58 57 56 54 53 52 51 50 48 47
20 22 25 27 30 32 35 37 40 42 44 46 48 50 52 54 56 56 57 57 58 58 59 59 60 60 61 62 62 62 62 61 61 59 58 55 53 52 51 50 49 48 46
25 27 30 32 35 38 41 43 46 49 51 53 54 55 57 58 58 59 60 61 60 60 60 60 61 62 63 63 63 62 62 61 60 59 58 56 54 52 51 49 48 47 46
30 32 35 38 41 43 46 49 52 54 57 59 60 60 60 61 61 62 62 63 62 62 61 61 61 62 63 63 62 61 61 60 59 58 57 56 54 52 50 49 48 46 45
35 37 40 43 46 49 52 55 57 60 62 63 64 64 64 64 64 64 64 63 63 63 61 61 60 61 62 62 62 61 60 59 58 57 56 55 53 52 51 49 48 47 45
39 42 45 48 51 54 57 60 62 64 65 65 66 66 65 65 65 65 64 62 62 62 61 60 60 60 60 60 61 61 60 58 57 56 55 54 52 51 50 48 47 45 44
44 46 49 52 55 58 61 63 65 66 66 66 66 66 65 64 63 63 62 61 61 61 60 60 59 59 58 58 59 59 59 58 57 56 55 53 51 50 48 47 45 44 43
49 52 54 57 59 61 63 64 64 64 65 65 64 64 63 61 60 60 60 59 59 60 59 59 58 57 57 57 57 57 56 55 55 54 53 52 51 49 47 45 44 44 42
54 56 59 61 62 63 63 62 62 61 61 62 61 61 60 59 58 58 57 57 56 56 56 55 55 55 54 54 55 55 54 52 52 51 50 49 48 47 46 45 43 42 41
58 59 61 62 62 62 61 60 58 58 58 58 58 57 57 56 56 56 55 53 53 53 52 51 51 52 52 51 52 52 53 51 50 49 48 46 45 45 44 43 41 41 40
60 61 61 61 61 60 59 58 57 55 55 55 56 56 55 54 53 53 52 50 48 49 49 48 48 48 48 49 49 49 49 49 48 46 45 44 43 42 42 42 41 40 39
60 60 60 60 60 59 57 56 55 54 53 52 52 52 52 50 49 48 47 46 45 44 45 45 45 45 45 46 46 46 47 47 46 44 42 41 41 41 40 40 39 38 37
60 60 59 59 58 57 55 54 53 52 51 50 49 48 46 45 43 42 41 41 40 40 41 42 42 43 43 44 44 44 45 44 43 42 42 41 41 40 39 38 37 36 36
59 59 58 58 56 55 53 52 51 50 49 47 46 44 42 40 38 36 35 35 35 35 36 38 39 40 41 42 42 42 41 41 41 41 40 40 39 39 38 37 37 36 36
58 58 57 56 55 53 52 50 49 47 45 44 42 40 38 35 33 32 31 31 31 31 32 33 35 36 37 38 39 39 39 39 40 39 38 38 38 38 38 37 36 35 35
57 57 56 55 53 51 50 48 46 43 41 39 36 34 33 31 29 27 27 27 27 27 28 30 32 33 33 34 35 36 37 37 38 38 37 37 37 36 36 35 35 34 34
57 56 55 52 50 49 47 45 43 40 37 34 32 31 29 27 25 24 23 23 23 25 26 27 29 31 31 31 32 34 35 36 36 37 36 35 35 35 34 34 34 34 33
56 55 53 50 48 47 45 42 39 36 33 31 29 27 25 24 22 21 20 20 20 21 22 24 26 28 30 30 30 32 33 35 36 36 36 35 34 34 33 33 33 33 33
55 53 51 49 46 44 42 39 35 33 30 28 26 24 22 20 19 17 16 16 16 17 18 21 24 26 27 29 30 31 32 33 34 34 34 34 34 33 33 33 32 32 32
Wind_Direction
190 199 205 209 212 217 223 228 232 235 239 239 240 243 244 247 251 252 253 255 256 257 259 261 262 263 264 263 266 267 267 267 267 266 266 267 268 269 271 272 274 276 278
182 190 199 206 216 223 229 233 237 241 243 243 245 246 248 251 252 254 256 257 258 259 261 262 263 264 265 265 266 267 266 264 265 266 266 267 268 269 271 273 274 276 277
187 195 202 210 220 226 231 236 241 244 246 247 249 251 252 254 256 258 259 260 262 262 262 263 265 266 265 265 265 264 263 263 265 265 265 266 267 269 270 272 274 275 276
180 192 205 216 224 228 232 239 244 246 249 252 255 257 258 259 260 261 262 263 263 263 263 263 264 265 264 263 262 261 261 262 263 264 264 266 267 268 270 272 273 275 276
196 212 223 231 238 241 247 250 252 254 256 258 259 260 261 262 262 262 264 264 264 264 263 262 263 263 262 261 259 259 260 260 261 263 264 265 267 268 270 271 272 274 275
232 241 248 252 253 255 258 260 261 261 262 264 264 265 265 266 266 266 266 265 264 264 264 265 264 262 261 260 259 259 260 260 261 262 264 265 266 267 268 269 271 273 275
275 273 271 270 270 269 268 268 268 268 269 270 270 270 269 269 269 268 268 267 266 266 266 265 263 262 260 260 260 260 259 259 260 262 263 264 265 265 266 268 270 272 274
290 286 284 282 281 280 279 278 276 275 275 275 274 273 272 272 271 270 269 268 267 267 266 265 264 262 260 260 260 260 259 259 259 260 261 262 263 264 265 267 268 270 271
295 292 290 288 287 286 285 283 282 281 280 280 279 277 276 275 274 273 272 270 269 269 267 266 264 262 261 260 260 259 259 258 258 258 259 260 262 263 264 265 266 268 269
297 295 293 291 290 289 288 287 286 285 284 283 281 279 278 276 275 273 272 271 270 268 267 265 263 261 260 259 260 259 259 258 257 257 258 259 260 261 262 263 265 267 268
300 298 296 294 292 291 289 288 288 287 286 284 282 281 279 278 276 275 273 272 271 269 268 266 263 261 260 259 259 258 258 257 256 256 257 257 258 259 260 262 263 265 266
304 301 298 296 295 293 292 291 289 288 287 286 284 283 281 279 278 276 275 274 272 270 268 266 264 261 259 258 257 256 256 255 255 254 255 256 256 257 258 260 262 263 264
305 303 301 299 297 295 294 292 291 289 288 286 285 284 282 281 279 278 276 274 271 269 267 265 262 260 258 256 255 253 253 253 253 253 254 255 255 256 257 258 259 260 262
305 304 302 301 300 298 296 294 291 290 289 287 286 284 283 281 279 277 275 272 271 268 266 263 260 258 256 254 254 253 252 251 252 253 254 254 254 255 255 256 257 258 260
306 305 303 302 301 300 298 296 294 291 290 288 287 286 284 282 279 276 274 271 269 267 264 261 259 256 255 253 252 251 251 250 250 252 252 252 253 253 254 254 255 257 258
307 306 304 303 302 301 300 298 295 293 292 290 289 288 285 283 280 276 274 271 268 266 263 260 258 255 253 251 250 249 248 248 248 249 250 250 250 251 251 252 253 254 254
308 306 305 304 304 303 302 300 298 296 295 293 291 289 286 284 281 278 275 272 267 264 261 259 256 254 251 249 248 247 246 245 246 247 247 248 248 248 248 249 250 251 252
309 308 307 306 305 304 303 301 300 297 296 294 293 291 288 285 282 279 275 271 267 263 259 256 253 251 248 247 245 244 243 242 244 244 244 244 245 246 246 247 248 249 251
311 310 309 308 307 305 303 302 300 299 298 296 294 292 290 287 283 279 275 270 265 261 256 252 249 248 247 245 243 241 240 240 241 241 242 242 243 243 244 246 247 248 248
312 311 311 310 308 306 305 303 301 300 299 298 296 294 292 288 284 279 274 270 264 259 253 248 246 246 244 242 240 239 238 237 237 238 239 240 240 240 241 243 244 245 246
313 313 312 311 310 308 307 305 303 301 300 299 298 296 294 290 285 279 274 269 264 258 252 248 244 243 241 239 238 236 236 235 235 236 237 238 238 238 239 241 242 243 245
315 314 313 312 311 310 309 307 305 303 301 300 298 297 295 291 286 281 274 268 262 257 251 245 241 239 238 237 234 232 233 233 233 234 234 235 236 236 237 239 241 242 243
317 316 315 314 313 312 310 309 307 305 302 300 299 297 295 291 287 283 276 268 261 255 249 243 239 236 235 233 230 230 230 230 230 230 231 232 233 233 234 237 239 241 242
319 318 317 315 314 313 312 310 308 306 304 301 299 298 295 291 286 282 276 268 259 252 247 242 237 233 231 229 228 228 228 229 228 228 229 230 230 230 233 235 237 239 240
320 319 318 317 315 314 313 311 309 307 304 301 299 297 295 292 287 281 275 268 260 252 246 239 234 230 227 226 226 226 227 227 227 227 227 227 227 229 231 235 236 238 240
320 320 319 318 317 315 314 312 310 308 305 302 299 296 293 291 286 280 273 266 259 250 243 237 232 228 225 224 224 224 224 224 224 224 225 226 227 229 231 234 236 239 241
Height
5643 5647 5652 5657 5662 5667 5672 5676 5680 5683 5686 5688 5691 5693 5695 5697 5699 5700 5702 5703 5704 5705 5706 5708 5709 5709 5709 5710 5710 5710 5710 5709 5709 5709 5709 5708 5708 5707 5706 5706 5705 5704 5702
5643 5646 5650 5655 5659 5663 5667 5670 5673 5676 5679 5681 5683 5685 5687 5688 5689 5690 5691 5692 5693 5694 5695 5696 5697 5697 5697 5697 5697 5697 5696 5696 5696 5696 5696 5696 5695 5695 5694 5694 5693 5692 5690
5643 5646 5649 5652 5655 5659 5662 5664 5667 5670 5672 5673 5675 5677 5678 5679 5680 5680 5681 5681 5682 5682 5683 5683 5684 5683 5683 5684 5683 5683 5683 5683 5683 5683 5683 5682 5682 5682 5681 5681 5680 5679 5678
5642 5644 5647 5650 5652 5655 5657 5659 5661 5663 5664 5665 5666 5667 5667 5668 5668 5668 5668 5668 5668 5668 5669 5669 5669 5669 5669 5669 5669 5669 5668 5669 5669 5669 5669 5669 5669 5668 5668 5668 5667 5667 5666
5641 5643 5645 5647 5648 5650 5652 5653 5654 5655 5656 5656 5656 5656 5656 5656 5656 5655 5655 5654 5654 5654 5654 5654 5654 5654 5654 5653 5654 5654 5654 5654 5654 5654 5655 5655 5655 5655 5655 5655 5654 5654 5653
5639 5641 5642 5643 5644 5644 5645 5646 5647 5647 5646 5646 5645 5645 5644 5643 5642 5641 5640 5640 5639 5639 5639 5639 5638 5638 5638 5638 5638 5638 5638 5639 5639 5640 5640 5641 5641 5641 5641 5641 5641 5641 5641
5636 5637 5638 5638 5638 5638 5638 5638 5637 5636 5635 5634 5633 5632 5630 5628 5627 5625 5624 5623 5623 5622 5621 5621 5620 5620 5620 5620 5620 5621 5622 5623 5624 5625 5625 5626 5626 5627 5627 5628 5628 5628 5628
5632 5631 5631 5631 5630 5630 5629 5628 5626 5625 5623 5621 5619 5617 5615 5613 5610 5608 5607 5606 5605 5604 5603 5602 5602 5602 5601 5602 5602 5603 5604 5606 5607 5608 5610 5611 5611 5612 5613 5614 5615 5615 5615
5625 5624 5623 5622 5621 5619 5618 5616 5614 5611 5609 5606 5604 5601 5598 5595 5592 5590 5588 5586 5586 5585 5584 5583 5583 5583 5583 5583 5584 5585 5587 5589 5590 5592 5593 5595 5596 5597 5598 5600 5601 5602 5603
5617 5615 5614 5611 5609 5607 5604 5601 5598 5595 5592 5589 5585 5582 5579 5576 5572 5570 5567 5566 5565 5564 5563 5562 5562 5562 5563 5563 5564 5566 5569 5571 5573 5575 5577 5579 5581 5582 5584 5586 5587 5588 5590
5607 5605 5602 5599 5596 5592 5589 5585 5582 5578 5575 5570 5566 5562 5558 5554 5551 5548 5545 5543 5543 5542 5542 5542 5541 5541 5542 5543 5545 5548 5550 5552 5555 5558 5560 5563 5565 5568 5570 5572 5574 5576 5577
5596 5593 5589 5585 5580 5576 5571 5567 5562 5557 5553 5548 5543 5539 5535 5531 5528 5525 5522 5520 5519 5518 5519 5519 5520 5520 5521 5523 5526 5529 5532 5534 5538 5541 5544 5548 5551 5553 5556 5558 5560 5562 5564
5585 5580 5575 5569 5564 5558 5552 5547 5541 5535 5529 5524 5520 5516 5512 5508 5504 5501 5499 5497 5495 5495 5496 5497 5498 5499 5500 5503 5506 5509 5513 5517 5521 5524 5528 5532 5535 5538 5541 5544 5547 5549 5551
5573 5567 5560 5554 5547 5540 5532 5525 5518 5512 5506 5501 5496 5492 5488 5484 5480 5477 5474 5473 5472 5471 5472 5474 5476 5478 5480 5483 5487 5490 5494 5500 5504 5508 5512 5516 5520 5524 5527 5530 5533 5536 5539
5559 5552 5545 5537 5529 5521 5512 5504 5496 5489 5483 5478 5473 5468 5464 5461 5457 5453 5451 5450 5449 5449 5450 5452 5454 5458 5461 5464 5468 5473 5477 5482 5488 5493 5497 5501 5506 5510 5513 5517 5520 5523 5526
5544 5536 5527 5518 5509 5501 5493 5485 5476 5469 5462 5456 5450 5445 5441 5438 5435 5432 5430 5429 5428 5428 5428 5431 5435 5438 5442 5446 5451 5456 5461 5467 5472 5477 5482 5486 5491 5495 5500 5504 5507 5511 5514
5527 5518 5508 5499 5490 5481 5473 5465 5458 5451 5443 5436 5430 5424 5420 5417 5414 5411 5409 5408 5408 5408 5409 5413 5417 5420 5424 5429 5434 5439 5445 5451 5457 5462 5467 5472 5477 5482 5486 5490 5494 5498 5502
5509 5499 5490 5480 5471 5462 5454 5446 5439 5433 5427 5420 5412 5405 5400 5397 5393 5391 5389 5389 5390 5391 5392 5396 5400 5403 5408 5413 5418 5424 5430 5436 5442 5448 5454 5459 5464 5469 5473 5478 5482 5486 5490
5492 5482 5472 5463 5453 5444 5436 5429 5422 5415 5409 5403 5396 5389 5382 5378 5375 5372 5370 5371 5372 5374 5376 5380 5383 5388 5392 5397 5403 5409 5415 5422 5429 5435 5441 5446 5452 5456 5461 5466 5470 5474 5478
5475 5465 5455 5446 5437 5428 5420 5412 5405 5399 5392 5386 5380 5374 5368 5363 5360 5357 5356 5355 5356 5359 5361 5365 5369 5373 5378 5383 5389 5396 5402 5409 5416 5423 5429 5434 5440 5445 5450 5455 5459 5463 5467
5460 5449 5439 5430 5421 5413 5405 5397 5390 5383 5377 5371 5365 5359 5354 5350 5347 5345 5343 5343 5343 5345 5348 5352 5356 5361 5365 5371 5377 5383 5390 5398 5405 5411 5417 5423 5428 5434 5439 5444 5448 5452 5456
5445 5435 5425 5416 5407 5398 5390 5383 5375 5368 5362 5357 5352 5346 5342 5338 5335 5333 5332 5332 5332 5334 5336 5340 5345 5349 5355 5360 5366 5373 5380 5387 5394 5400 5406 5412 5417 5423 5428 5433 5437 5442 5445
5431 5421 5411 5402 5393 5385 5377 5369 5362 5355 5350 5345 5340 5336 5332 5328 5326 5324 5323 5323 5323 5325 5327 5331 5335 5340 5345 5351 5357 5363 5370 5377 5383 5390 5396 5402 5407 5413 5418 5423 5427 5431 5435
5418 5408 5398 5389 5380 5372 5365 5357 5350 5344 5339 5334 5330 5326 5323 5320 5318 5316 5315 5315 5316 5317 5320 5323 5327 5331 5337 5342 5348 5354 5361 5367 5374 5380 5386 5392 5398 5403 5408 5413 5417 5422 5425
5405 5396 5386 5377 5369 5361 5353 5346 5340 5334 5329 5325 5321 5318 5315 5313 5311 5309 5309 5309 5309 5311 5313 5316 5320 5324 5330 5335 5341 5347 5353 5359 5365 5371 5378 5383 5389 5394 5399 5404 5408 5412 5416
5393 5384 5375 5366 5358 5350 5343 5336 5330 5325 5321 5317 5314 5311 5308 5306 5305 5304 5303 5303 5304 5305 5307 5310 5314 5318 5323 5328 5334 5339 5345 5351 5357 5363 5369 5375 5380 5386 5390 5395 5399 5403 5406